Laramie, WY

11:41 AM MDT on September 22, 2017 (GMT -0600)
Laramie Regional

Weather History for KLAR - February, 2014

Change the Weather History Date:

Wednesday, February 26, 2014

  Actual Average Record
Temperature  
Mean Temperature 9 °F 26 °F  
Max Temperature 31 °F 38 °F 62 °F (1950)
Min Temperature -14 °F 14 °F -20 °F (1964)
Degree Days  
Heating Degree Days 56 39  
Month to date heating degree days 1079 1082  
Since 1 July heating degree days 5940 6097  
Cooling Degree Days 0 0  
Month to date cooling degree days 0 0  
Year to date cooling degree days 0 0  
Moisture  
Dew Point 3 °F    
Average Humidity 69    
Maximum Humidity 91    
Minimum Humidity 47    
Precipitation  
Precipitation 0.00 in 0.01 in 0.19 in (1954)
Month to date precipitation 0.16 0.31  
Year to date precipitation 0.84 0.58  
Sea Level Pressure  
Sea Level Pressure 30.19 in    
Wind  
Wind Speed 6 mph (SSE)    
Max Wind Speed 14 mph    
Max Gust Speed 17 mph    
Visibility 9 miles    
Events Fog    
T = Trace of Precipitation, MM = Missing Value Source: NWS Daily Summary

Daily Weather History Graph

Daily Weather History Graph

Search for Another Location

Airport or City:

Trip Planner

Search our weather history database for the weather conditions in past years. The results will help you decide how hot, cold, wet, or windy it might be!

Date:

Astronomy

Feb. 26, 2014 Rise Set
Actual Time 6:41 AM MST 5:50 PM MST
Civil Twilight 6:13 AM MST 6:17 PM MST
Nautical Twilight 5:41 AM MST 6:49 PM MST
Astronomical Twilight 5:09 AM MST 7:21 PM MST
Moon 4:31 AM MST (2/26) 3:06 PM MST (2/26)
Length of Visible Light 12h 04m
Length of Day
11h 08m
Waning Crescent, 9% of the Moon is Illuminated
Feb 26
Waning Crescent
Mar 1
New
Mar 8
First Quarter
Mar 16
Full
Mar 23
Last Quarter

Hourly Weather History & Observations

Time (MST) Temp. Windchill Dew Point Humidity Pressure Visibility Wind Dir Wind Speed Gust Speed Precip Events Conditions
12:02 AM -13.0 °F -32.4 °F -15.0 °F 91% 30.07 in 0.5 mi SW 10.4 mph - N/A Fog Light Freezing Fog
12:13 AM -11.0 °F -30.9 °F -14.1 °F 86% 30.07 in 1.0 mi SSW 11.5 mph - N/A   Mist
12:16 AM -9.0 °F -28.4 °F -11.9 °F 87% 30.07 in 2.5 mi SSW 11.5 mph - N/A   Clear
12:23 AM -9.0 °F -27.4 °F -13.0 °F 83% 30.06 in 10.0 mi SSW 10.4 mph - N/A   Clear
12:53 AM -11.0 °F -27.6 °F -14.1 °F 86% 30.34 in 10.0 mi South 8.1 mph - N/A   Clear
1:53 AM -8.0 °F -26.1 °F -11.0 °F 86% 30.31 in 10.0 mi SE 10.4 mph - N/A   Clear
2:53 AM -4.0 °F -19.0 °F -8.0 °F 83% 30.27 in 10.0 mi SE 8.1 mph - N/A   Clear
3:53 AM -2.9 °F -19.8 °F -6.0 °F 87% 30.25 in 10.0 mi SSE 10.4 mph - N/A   Clear
4:53 AM -2.0 °F - -5.1 °F 87% 30.25 in 10.0 mi Calm Calm - N/A   Clear
5:53 AM -8.0 °F -21.0 °F -11.9 °F 83% 30.30 in 10.0 mi WNW 5.8 mph - N/A   Clear
6:53 AM -6.0 °F -21.5 °F -9.9 °F 83% 30.32 in 10.0 mi NNW 8.1 mph - N/A   Clear
7:53 AM -0.9 °F -16.4 °F -5.1 °F 83% 30.32 in 8.0 mi NNE 9.2 mph - N/A   Clear
8:53 AM 3.9 °F -6.9 °F 1.0 °F 88% 30.32 in 10.0 mi NNW 5.8 mph - N/A   Clear
9:53 AM 7.0 °F -7.5 °F 1.9 °F 80% 30.33 in 10.0 mi North 10.4 mph - N/A   Clear
10:53 AM 12.9 °F -1.6 °F 7.0 °F 77% 30.32 in 10.0 mi NNE 12.7 mph - N/A   Clear
11:53 AM 18.0 °F 12.7 °F 10.9 °F 74% 30.32 in 10.0 mi Variable 3.5 mph - N/A   Clear
12:53 PM 19.0 °F 13.9 °F 14.0 °F 81% 30.28 in 10.0 mi Variable 3.5 mph - N/A   Clear
1:53 PM 27.0 °F - 18.0 °F 69% 30.19 in 10.0 mi Calm Calm - N/A   Clear
2:53 PM 27.0 °F 21.6 °F 18.0 °F 69% 30.15 in 10.0 mi ENE 4.6 mph - N/A   Clear
3:53 PM 30.9 °F 26.2 °F 12.9 °F 47% 30.12 in 10.0 mi NE 4.6 mph - N/A   Clear
4:53 PM 27.0 °F 20.5 °F 18.0 °F 69% 30.13 in 10.0 mi ENE 5.8 mph - N/A   Clear
5:53 PM 24.1 °F 19.7 °F 18.0 °F 77% 30.18 in 10.0 mi East 3.5 mph - N/A   Clear
6:53 PM 23.0 °F 18.4 °F 18.0 °F 81% 30.17 in 10.0 mi SE 3.5 mph - N/A   Clear
7:53 PM 21.0 °F 14.6 °F 15.1 °F 78% 30.15 in 10.0 mi SE 4.6 mph - N/A   Clear
8:53 PM 21.9 °F 14.5 °F 14.0 °F 72% 30.11 in 10.0 mi SW 5.8 mph - N/A   Clear
9:53 PM 23.0 °F 13.1 °F 14.0 °F 68% 30.07 in 10.0 mi SW 9.2 mph - N/A   Clear
10:53 PM 23.0 °F 13.9 °F 14.0 °F 68% 30.02 in 10.0 mi WSW 8.1 mph - N/A   Clear
11:53 PM 25.0 °F 16.3 °F 15.1 °F 66% 29.96 in 10.0 mi SSW 8.1 mph - N/A   Clear